Meath Environmental Platform

Observations for Trim Market St

Time AQI Temp °C Hum % Pres Pa CO μg/m³ H₂S μg/m³ NO μg/m³ NO₂ μg/m³ O₃ μg/m³ SO₂ μg/m³ PM1 μg/m³ PM2.5 μg/m³ PM10 μg/m³
Tuesday 18 August 2026
18:14 2 20.9 59 57,624 0 4.94 2.39 28.46 67.12 0 0 2.08 4.06
18:13 2 20.9 58 57,631 0 5.13 2.67 30.95 65.52 0 0 2.59 5.44
18:12 2 21 58 57,635 0 6.31 2.88 41.19 61.41 0 0 3.11 4.74
18:11 2 21.1 58 57,634 0 5.44 2.98 32.28 67.95 0 0 2.62 3.34
18:10 2 21.1 58 57,623 0 5.47 3.02 33.52 65.74 0 0 3.14 5.43
18:09 2 21.2 57 57,600 0 4.94 2.84 46.52 57.27 0 0 2.65 3.31
18:08 2 21.3 57 57,562 0 2.33 2.98 23.9 68.88 0 0 2.15 2.6
18:07 2 21.3 57 57,508 0 2.59 3.03 28.76 65.46 0 0.71 3.17 4.71
18:01 2 21.6 55 56,772 0 5.99 3.12 49.57 57.32 0 0 2.74 3.24
17:57 2 21.6 54 55,982 0 1.9 2.77 27.4 67.56 0 0 2.79 4.64
17:55 2 21.7 54 55,837 0 0.11 3.03 27.24 65.56 0 0 2.29 3.19
17:54 2 21.7 54 55,839 0 0 3.07 27.23 64.14 0 0 2.3 3.18
17:49 2 21.7 53 56,065 0 0 3.07 21.9 66.4 0 0.71 3.34 3.89
17:48 2 21.7 53 56,231 0 0 3.06 41.92 47.24 0 0 2.32 2.44
17:47 2 21.8 53 56,461 0 0 2.93 13.67 74.14 0 0 2.32 2.43
17:46 2 21.8 53 56,617 0 0 2.78 14.34 73.15 0 0 2.32 3.16
17:43 2 21.9 53 57,108 0 0 3.07 17.84 69.67 0 0 2.34 2.42
17:42 2 21.9 53 57,343 0 0 3.32 18.12 69.66 0 0 1.83 2.01
17:41 2 21.9 52 57,564 0 0 3.47 22.73 66.11 0 0 3.88 4.6
17:40 2 22 52 57,863 0 0 3.78 39.42 50.37 0 0 2.35 3.14